Regional Weather Roundup
Issued by NWS

Home | Current Version | Previous Version | Graphics & Text | Print | Product List | Glossary Off
Versions: 1 2 3 4 5 6 7 8 9 10 11 12 13 14 15 16 17 18 19 20 21 22 23 24 25 26 27 28 29 30 31 32 33 34 35 36 37 38 39 40 41 42 43 44 45 46 47 48 49 50

000
ASUS43 KDTX 280110
RWRMI
MICHIGAN HOURLY REGIONAL WEATHER ROUNDUP
NATIONAL WEATHER SERVICE DETROIT/PONTIAC MI
900 PM EDT WED MAY 27 2015

NOTE: "FAIR" INDICATES FEW OR NO CLOUDS BELOW 12,000 FEET WITH NO
SIGNIFICANT WEATHER AND/OR OBSTRUCTION TO VISIBILITY.

MIZ047>049-052>055-059>063-066>070-074>076-081>083-280200-
SOUTHEAST LOWER MICHIGAN

CITY           SKY/WX    TMP DP  RH WIND       PRES   REMARKS
ADRIAN         PTCLDY    70  59  68 W5        30.03R
ALMA           PTCLDY    66  56  70 NW6       30.04R
ANN ARBOR      MOCLDY    68  59  73 W7        30.01R
BAD AXE        MOCLDY    69  55  62 W13G20    29.98R
CARO           MOCLDY    69  57  65 W13G20    30.00R
DETROIT CITY   MOCLDY    73  56  54 W7        30.00R
DETROIT        MOCLDY    72  58  61 SW10      30.01R
FLINT          MOCLDY    71  56  58 W8        30.01R
GROSSE ILE     MOCLDY    70  64  83 CALM      29.99S
HILLSDALE      MOCLDY    69  58  70 W8        30.04S
HOWELL         CLEAR     66  57  72 W6        30.02R

CITY           SKY/WX    TMP DP  RH WIND       PRES   REMARKS
JACKSON        CLEAR     66  56  70 W6        30.03R
LAMBERTVILLE   CLOUDY    72  64  78 SW5       30.03R
LANSING        PTCLDY    67  56  67 NW10      30.04R
LAPEER         MOCLDY    69  54  58 W7        30.01R
MASON          PTCLDY    66  56  68 W6        30.03R
MONROE         CLOUDY    70  64  83 W7        30.00R
MT. CLEMENS    PTCLDY    71  60  69 W8        29.97R
PONTIAC        PTCLDY    69  56  62 W10       30.00R
PORT HOPE        N/A     69  56  62 NW12      29.96R
PORT HURON     MOCLDY    68  63  83 CALM      29.99R
TRI CITIES     CLEAR     69  56  62 W9        30.02R
MIDLAND        FAIR      68  53  59 W5        30.01R
TROY           PTCLDY    72  62  69 W5        30.02R
SAGINAW HB     PTCLDY    70  55  60 W10       30.01R
$$
MIZ043>046-050>051-056>058-064>065-071>073-077>080-280200-
SOUTHWEST LOWER MICHIGAN

CITY           SKY/WX    TMP DP  RH WIND       PRES   REMARKS
BATTLE CREEK   CLOUDY    68  56  65 NW9       30.05R
BENTON HARBOR  CLEAR     57  55  93 CALM      30.07R
BIG RAPIDS     CLEAR     64  54  69 CALM      30.05R
COLDWATER      CLEAR     65  56  72 W7        30.04R
FREMONT        FAIR      64  56  76 W3        30.06R
HOLLAND        CLEAR     60  56  86 SW3       30.08R
GRAND RAPIDS   PTCLDY    64  55  72 W9        30.05R
IONIA          FAIR      67  56  67 NW9       30.04R
KALAMAZOO      PTCLDY    66  54  65 NW8       30.06R
LUDINGTON      MOCLDY    61  55  82 W5        30.05R
MARSHALL       CLOUDY    66  57  72 W6        30.04R
MOUNT PLEASANT CLEAR     66  54  64 CALM      30.03R
MUSKEGON       PTCLDY    59  54  83 W5        30.07R
SOUTH HAVEN    CLEAR     59  56  88 NW3       30.07R
$$
MIZ016>042-280200-
NORTHERN LOWER MICHIGAN

CITY           SKY/WX    TMP DP  RH WIND       PRES   REMARKS
ALPENA         MOCLDY    63  53  70 NW8       30.00R
BEAVER ISLAND  MOCLDY    58  52  79 SW6       30.00R
BELLAIRE       CLOUDY    62  58  87 CALM      30.01R
CADILLAC       CLOUDY    62  55  77 SW3       30.05R
CHARLEVOIX     CLOUDY    60  55  82 S3        30.03R
FRANKFORT      PTCLDY    62  49  64 SW7       30.01S
GAYLORD        CLOUDY    62  57  83 CALM      30.03R
GRAYLING       MOCLDY    63  54  72 CALM      30.04R
HARBOR SPRINGS PTCLDY    51  50  97 CALM      30.02R
HOUGHTON LAKE  CLEAR     65  53  65 NW6       30.03R
MANISTEE       PTCLDY    61  54  77 CALM      30.04R
OSCODA         PTCLDY    66  53  63 NW16G28   29.99R
PELLSTON       CLOUDY    60  53  77 W3        30.02R
ROGERS CITY    MOCLDY    63  53  72 W7        30.02R
TRAVERSE CITY  MOCLDY    67  55  65 SW5       29.99R
$$
MIZ007>008-015-280200-
EASTERN UPPER MICHIGAN

CITY           SKY/WX    TMP DP  RH WIND       PRES   REMARKS
KINROSS        CLOUDY    55  54  94 CALM      29.99R
MACKINAC ISLAN PTCLDY    56  54  94 SW9       30.00R
NEWBERRY       PTCLDY    61  58  91 SW8G17    29.98R
S. S. MARIE    MOCLDY    53  50  89 NW5       29.99R
MUNISING         N/A     59  52  77 CALM      29.95R
$$
MIZ004>006-011>014-085-280200-
CENTRAL UPPER MICHIGAN

CITY           SKY/WX    TMP DP  RH WIND       PRES   REMARKS
MANISTIQUE     MOCLDY    54  50  87 S6        29.97S
ESCANABA       CLOUDY    63  55  77 E5        29.94R
MENOMINEE      PTCLDY    63  54  72 SW6       29.96S
SAWYER-GWINN   PTCLDY    64  55  72 NE9       29.97R
$$
MIZ001>003-009>011-084-280200-
WESTERN UPPER MICHIGAN

CITY           SKY/WX    TMP DP  RH WIND       PRES   REMARKS
IRON MOUNTAIN  MOCLDY    68  60  75 SE5       29.95R
HOUGHTON       PTCLDY    65  51  60 N8        29.94R
COPPER HARBOR    N/A     52  45  77 N6        29.97R
IRONWOOD       MOCLDY    64  57  77 S7        29.94R
$$

ABBREVIATIONS USED IN REMARKS
   TC - TEMPERATURE IN CELSIUS
  WCI - WIND CHILL INDEX
   HX - HEAT INDEX
  VSB - VISIBILITY



USA.gov is the U.S. government's official web portal to all federal, state and local government web resources and services.